Weather History for Kansas City, MO

Change the Weather History Date:

Sunday, December 9, 2012

  Actual Average Record
Temperature  
Mean Temperature 1 °C -  
Max Temperature 7 °C 6 °C 15 °C (2008)
Min Temperature -6 °C -2 °C -17 °C (2005)
Degree Days  
Heating Degree Days 32    
Moisture  
Dew Point -2 °C    
Average Humidity 77    
Maximum Humidity 100    
Minimum Humidity 51    
Precipitation  
Precipitation 0.25 mm - - ()
Sea Level Pressure  
Sea Level Pressure 1013 hPa    
Wind  
Wind Speed 10 km/h (NW)    
Max Wind Speed 24 km/h    
Max Gust Speed 42 km/h    
Visibility 10 kilometers    
Events Rain    
Averages and records for this station are not official NWS values.
T = Trace of Precipitation, MM = Missing Value Source: NWS Daily Summary

Daily Weather History Graph

Daily Weather History Graph

Search for Another Location

Airport:

Trip Planner

Search our weather history database for the weather conditions in past years. The results will help you decide how hot, cold, wet, or windy it might be!

Date:

Astronomy

Dec. 09, 2012 Rise Set
Actual Time 7:26 AM CST 4:55 PM CST
Civil Twilight 6:56 AM CST 5:25 PM CST
Nautical Twilight 6:22 AM CST 5:59 PM CST
Astronomical Twilight 5:50 AM CST 6:31 PM CST
Moon 3:01 AM CST (12/9) 2:01 PM CST (12/9)
Length of Visible Light 10h 29m
Length of Day
9h 29m
Waning Crescent, 18% of the Moon is Illuminated
Dec 9
Waning Crescent
Dec 13
New
Dec 19
First Quarter
Dec 28
Full
Jan 4
Last Quarter

Hourly Weather History & Observations

Time (CST) Temp. Windchill Dew Point Humidity Pressure Visibility Wind Dir Wind Speed Gust Speed Precip Events Conditions
12:54 AM 4.4 °C 2.1 °C 2.8 °C 89% 1011.4 hPa 8.0 km East 9.3 km/h / 2.6 m/s - N/A   Overcast
1:54 AM 5.0 °C 3.3 °C 3.3 °C 89% 1011.2 hPa 8.0 km East 7.4 km/h / 2.1 m/s - N/A   Overcast
2:54 AM 5.0 °C - 3.3 °C 89% 1011.1 hPa 6.4 km Calm Calm - N/A   Overcast
3:29 AM 5.0 °C 3.9 °C 3.0 °C 87% 1010.4 hPa 4.8 km NNE 5.6 km/h / 1.5 m/s - N/A   Overcast
3:54 AM 4.4 °C 2.6 °C 3.3 °C 93% 1010.5 hPa 4.8 km NNE 7.4 km/h / 2.1 m/s - N/A   Overcast
4:07 AM 4.0 °C 2.8 °C 3.0 °C 93% 1010.0 hPa 4.0 km NNE 5.6 km/h / 1.5 m/s - N/A   Overcast
4:54 AM 4.4 °C 3.2 °C 3.9 °C 97% 1010.6 hPa 3.2 km NNE 5.6 km/h / 1.5 m/s - N/A   Overcast
5:15 AM 4.0 °C 2.8 °C 3.0 °C 93% 1010.4 hPa 2.8 km NNE 5.6 km/h / 1.5 m/s - N/A   Overcast
5:24 AM 4.0 °C - 4.0 °C 100% 1010.4 hPa 3.2 km Calm Calm - N/A   Overcast
5:54 AM 4.4 °C - 3.9 °C 97% 1011.2 hPa 2.8 km Calm Calm - N/A   Overcast
6:54 AM 4.4 °C 1.4 °C 3.9 °C 97% 1011.5 hPa 2.8 km NW 13.0 km/h / 3.6 m/s - 0.0 mm Rain Light Rain
7:13 AM 4.0 °C 1.7 °C 4.0 °C 100% 1011.1 hPa 3.2 km North 9.3 km/h / 2.6 m/s - 0.3 mm   Overcast
7:37 AM 4.0 °C 2.1 °C 4.0 °C 100% 1011.7 hPa 4.8 km NW 7.4 km/h / 2.1 m/s - 0.3 mm   Overcast
7:54 AM 4.4 °C - 3.9 °C 97% 1012.1 hPa 6.4 km Calm Calm - 0.3 mm   Overcast
8:05 AM 5.0 °C 3.3 °C 4.0 °C 93% 1011.4 hPa 4.8 km NW 7.4 km/h / 2.1 m/s - N/A   Overcast
8:54 AM 5.0 °C 2.8 °C 3.3 °C 89% 1012.4 hPa 6.4 km WNW 9.3 km/h / 2.6 m/s - N/A   Overcast
9:04 AM 5.0 °C 2.8 °C 3.0 °C 87% 1012.1 hPa 8.0 km WNW 9.3 km/h / 2.6 m/s - N/A   Overcast
9:54 AM 6.1 °C 3.8 °C 3.9 °C 86% 1012.8 hPa 8.0 km WNW 11.1 km/h / 3.1 m/s - N/A   Overcast
10:54 AM 6.1 °C 4.2 °C 3.9 °C 86% 1013.1 hPa 6.4 km WNW 9.3 km/h / 2.6 m/s - N/A   Overcast
11:43 AM 7.0 °C 4.5 °C 3.0 °C 76% 1012.1 hPa 9.7 km NNW 13.0 km/h / 3.6 m/s - N/A   Haze
11:54 AM 6.7 °C 3.6 °C 2.8 °C 76% 1012.3 hPa 9.7 km NNW 16.7 km/h / 4.6 m/s 27.8 km/h / 7.7 m/s N/A   Haze
12:54 PM 5.6 °C 1.8 °C 0.6 °C 70% 1013.3 hPa 16.1 km NW 20.4 km/h / 5.7 m/s - N/A   Overcast
1:54 PM 6.1 °C 2.9 °C -0.6 °C 62% 1013.1 hPa 16.1 km NW 16.7 km/h / 4.6 m/s - N/A   Mostly Cloudy
2:11 PM 6.0 °C 2.1 °C -2.0 °C 57% 1012.8 hPa 16.1 km NW 22.2 km/h / 6.2 m/s 35.2 km/h / 9.8 m/s N/A   Scattered Clouds
2:54 PM 5.6 °C 1.4 °C -3.3 °C 53% 1013.4 hPa 16.1 km NW 24.1 km/h / 6.7 m/s 37.0 km/h / 10.3 m/s N/A   Clear
3:54 PM 2.2 °C -3.0 °C -6.7 °C 52% 1014.9 hPa 16.1 km WNW 24.1 km/h / 6.7 m/s 37.0 km/h / 10.3 m/s N/A   Clear
4:54 PM 0.0 °C -5.3 °C -8.9 °C 52% 1016.3 hPa 16.1 km NW 20.4 km/h / 5.7 m/s 35.2 km/h / 9.8 m/s N/A   Clear
5:54 PM -1.7 °C -6.4 °C -10.6 °C 51% 1017.2 hPa 16.1 km NW 14.8 km/h / 4.1 m/s 33.3 km/h / 9.3 m/s N/A   Clear
6:54 PM -1.7 °C -7.9 °C -10.6 °C 51% 1017.7 hPa 16.1 km WNW 24.1 km/h / 6.7 m/s 37.0 km/h / 10.3 m/s N/A   Clear
7:54 PM -2.8 °C -9.4 °C -10.6 °C 56% 1018.2 hPa 16.1 km NW 24.1 km/h / 6.7 m/s 38.9 km/h / 10.8 m/s N/A   Partly Cloudy
8:07 PM -3.0 °C -9.6 °C -11.0 °C 55% 1017.5 hPa 16.1 km WNW 24.1 km/h / 6.7 m/s 31.5 km/h / 8.7 m/s N/A   Mostly Cloudy
8:41 PM -3.0 °C -9.3 °C -11.0 °C 55% 1017.8 hPa 14.5 km NW 22.2 km/h / 6.2 m/s 42.6 km/h / 11.8 m/s 0.0 mm   Mostly Cloudy
8:54 PM -3.9 °C -10.5 °C -11.7 °C 55% 1018.6 hPa 16.1 km WNW 22.2 km/h / 6.2 m/s 35.2 km/h / 9.8 m/s 0.0 mm   Mostly Cloudy
9:54 PM -4.4 °C -11.1 °C -12.2 °C 55% 1018.7 hPa 16.1 km NW 22.2 km/h / 6.2 m/s 37.0 km/h / 10.3 m/s N/A   Scattered Clouds
10:54 PM -5.0 °C -10.5 °C -12.2 °C 58% 1019.1 hPa 16.1 km NW 14.8 km/h / 4.1 m/s 33.3 km/h / 9.3 m/s N/A   Clear
11:54 PM -5.6 °C -12.0 °C -12.2 °C 60% 1019.3 hPa 16.1 km NW 18.5 km/h / 5.1 m/s 31.5 km/h / 8.7 m/s N/A   Scattered Clouds